• In Kazakhstan
  • List of Countries
  • For 7 days
  • Water Temperature
  • Satellite Maps
  • Weather Map
  • News
  • Weather Widgets
  • user-avatar
    Login

    Hourly Weather Kozarze

    Today, 20 May, Monday

    Time Temperature Precipitation Wind Pressure Humidity
    00:00 +15°C° 0 mm 4 mps 746 mmHg 95%
    01:00 +15°C° 0 mm 4 mps 746 mmHg 96%
    02:00 +15°C° 0 mm 4 mps 746 mmHg 96%
    03:00 +15°C° 0 mm 4 mps 746 mmHg 96%
    04:00 +15°C° 0 mm 4 mps 746 mmHg 97%
    05:00 +16°C° 0 mm 5 mps 746 mmHg 95%
    06:00 +17°C° 0 mm 5 mps 745 mmHg 93%
    07:00 +19°C° 0 mm 6 mps 745 mmHg 91%
    08:00 +20°C° 0.1 mm 6 mps 745 mmHg 89%
    09:00 +20°C° 0.1 mm 7 mps 745 mmHg 87%
    10:00 +20°C° 0.1 mm 7 mps 746 mmHg 86%
    11:00 +22°C° 0 mm 7 mps 745 mmHg 81%
    12:00 +23°C° 0 mm 6 mps 745 mmHg 76%
    13:00 +26°C° 0 mm 6 mps 745 mmHg 72%
    14:00 +24°C° 0.4 mm 6 mps 745 mmHg 74%
    15:00 +24°C° 0.4 mm 7 mps 744 mmHg 76%
    16:00 +23°C° 0.4 mm 7 mps 744 mmHg 78%
    17:00 +22°C° 0.5 mm 6 mps 744 mmHg 80%
    18:00 +21°C° 0.5 mm 6 mps 744 mmHg 83%
    19:00 +20°C° 0.5 mm 6 mps 744 mmHg 86%
    20:00 +20°C° 1.4 mm 5 mps 744 mmHg 88%
    21:00 +19°C° 1.4 mm 4 mps 744 mmHg 90%
    22:00 +18°C° 1.4 mm 4 mps 744 mmHg 92%
    23:00 +18°C° 0.1 mm 4 mps 744 mmHg 93%

    Tomorrow, 21 May, Tuesday

    Time Temperature Precipitation Wind Pressure Humidity
    00:00 +17°C° 0.1 mm 4 mps 744 mmHg 94%
    01:00 +17°C° 0.1 mm 3 mps 744 mmHg 95%
    02:00 +17°C° 0 mm 4 mps 744 mmHg 95%
    03:00 +17°C° 0 mm 4 mps 744 mmHg 96%
    04:00 +17°C° 0 mm 4 mps 744 mmHg 96%
    05:00 +17°C° 0 mm 5 mps 744 mmHg 94%
    06:00 +17°C° 0 mm 5 mps 744 mmHg 92%
    07:00 +19°C° 0 mm 6 mps 744 mmHg 90%
    08:00 +19°C° 0.1 mm 6 mps 744 mmHg 89%
    09:00 +19°C° 0.1 mm 6 mps 744 mmHg 87%
    10:00 +19°C° 0.1 mm 6 mps 744 mmHg 86%
    11:00 +19°C° 0.1 mm 6 mps 743 mmHg 85%
    12:00 +19°C° 0.1 mm 6 mps 743 mmHg 84%
    13:00 +19°C° 0.1 mm 6 mps 743 mmHg 83%
    14:00 +19°C° 0.1 mm 6 mps 742 mmHg 81%
    15:00 +20°C° 0.1 mm 7 mps 742 mmHg 79%
    16:00 +20°C° 0.1 mm 7 mps 742 mmHg 77%
    17:00 +17°C° 0 mm 8 mps 742 mmHg 78%
    18:00 +16°C° 0 mm 9 mps 742 mmHg 79%
    19:00 +15°C° 0 mm 9 mps 742 mmHg 81%
    20:00 +15°C° 0 mm 9 mps 742 mmHg 81%
    21:00 +15°C° 0 mm 8 mps 743 mmHg 81%
    22:00 +15°C° 0 mm 8 mps 743 mmHg 81%
    23:00 +13°C° 0 mm 8 mps 743 mmHg 82%

    Day after tomorrow, 22 May, Wednesday

    Time Temperature Precipitation Wind Pressure Humidity
    00:00 +14°C° 0 mm 7 mps 743 mmHg 83%
    01:00 +14°C° 0 mm 7 mps 743 mmHg 84%
    02:00 +13°C° 0 mm 6 mps 743 mmHg 88%
    03:00 +13°C° 0 mm 6 mps 743 mmHg 91%
    04:00 +12°C° 0 mm 5 mps 743 mmHg 95%
    05:00 +13°C° 0 mm 5 mps 744 mmHg 91%
    06:00 +14°C° 0 mm 5 mps 744 mmHg 87%
    07:00 +16°C° 0 mm 5 mps 744 mmHg 84%
    08:00 +17°C° 0.4 mm 5 mps 744 mmHg 81%
    09:00 +19°C° 0.4 mm 5 mps 744 mmHg 78%
    10:00 +20°C° 0.4 mm 6 mps 744 mmHg 75%
    11:00 +20°C° 0.6 mm 5 mps 744 mmHg 74%
    12:00 +21°C° 0.6 mm 5 mps 744 mmHg 73%
    13:00 +21°C° 0.6 mm 5 mps 744 mmHg 72%
    14:00 +21°C° 0.6 mm 5 mps 744 mmHg 73%
    15:00 +21°C° 0.6 mm 5 mps 744 mmHg 75%
    16:00 +20°C° 0.6 mm 5 mps 744 mmHg 77%
    17:00 +19°C° 0.2 mm 4 mps 744 mmHg 81%
    18:00 +18°C° 0.2 mm 3 mps 744 mmHg 86%
    19:00 +17°C° 0.2 mm 2 mps 743 mmHg 90%
    20:00 +16°C° 0 mm 3 mps 744 mmHg 92%
    21:00 +14°C° 0 mm 3 mps 744 mmHg 93%
    22:00 +13°C° 0 mm 3 mps 744 mmHg 95%
    23:00 +13°C° 0 mm 3 mps 744 mmHg 96%

    23 May, Thursday

    Time Temperature Precipitation Wind Pressure Humidity
    00:00 +13°C° 0 mm 3 mps 744 mmHg 96%
    01:00 +13°C° 0 mm 2 mps 744 mmHg 97%
    02:00 +14°C° 0 mm 2 mps 744 mmHg 97%
    03:00 +14°C° 0 mm 2 mps 744 mmHg 97%
    04:00 +14°C° 0 mm 2 mps 744 mmHg 97%
    05:00 +15°C° 0 mm 2 mps 744 mmHg 95%
    06:00 +15°C° 0 mm 2 mps 745 mmHg 93%
    07:00 +16°C° 0 mm 2 mps 745 mmHg 91%
    08:00 +16°C° 0 mm 2 mps 745 mmHg 88%
    09:00 +18°C° 0 mm 1 mps 745 mmHg 85%
    10:00 +19°C° 0 mm 1 mps 745 mmHg 82%
    11:00 +19°C° 0.4 mm 2 mps 745 mmHg 79%
    12:00 +20°C° 0.4 mm 2 mps 745 mmHg 76%
    13:00 +21°C° 0.4 mm 3 mps 745 mmHg 73%
    14:00 +20°C° 1.2 mm 4 mps 746 mmHg 77%
    15:00 +19°C° 1.2 mm 5 mps 746 mmHg 81%
    16:00 +19°C° 1.2 mm 5 mps 746 mmHg 86%
    17:00 +17°C° 0.2 mm 6 mps 746 mmHg 87%
    18:00 +15°C° 0.2 mm 6 mps 746 mmHg 88%
    19:00 +14°C° 0.2 mm 6 mps 747 mmHg 90%
    20:00 +13°C° 0 mm 6 mps 747 mmHg 89%
    21:00 +12°C° 0 mm 5 mps 747 mmHg 89%
    22:00 +10°C° 0 mm 5 mps 747 mmHg 88%
    23:00 +10°C° 0.1 mm 5 mps 747 mmHg 88%

    24 May, Friday

    Time Temperature Precipitation Wind Pressure Humidity
    00:00 +9°C° 0.1 mm 5 mps 748 mmHg 87%
    01:00 +10°C° 0.1 mm 4 mps 748 mmHg 87%
    02:00 +10°C° 0 mm 4 mps 748 mmHg 87%
    03:00 +10°C° 0 mm 4 mps 748 mmHg 87%
    04:00 +8°C° 0 mm 4 mps 748 mmHg 87%
    05:00 +10°C° 0 mm 4 mps 748 mmHg 85%
    06:00 +11°C° 0 mm 4 mps 748 mmHg 83%
    07:00 +12°C° 0 mm 4 mps 748 mmHg 81%
    08:00 +13°C° 0 mm 5 mps 748 mmHg 76%
    09:00 +15°C° 0 mm 5 mps 748 mmHg 71%
    10:00 +17°C° 0 mm 5 mps 748 mmHg 66%
    11:00 +17°C° 0 mm 5 mps 748 mmHg 65%
    12:00 +19°C° 0 mm 4 mps 747 mmHg 63%
    13:00 +20°C° 0 mm 4 mps 747 mmHg 61%
    14:00 +19°C° 0.1 mm 4 mps 747 mmHg 63%
    15:00 +19°C° 0.1 mm 4 mps 747 mmHg 64%
    16:00 +19°C° 0.1 mm 4 mps 747 mmHg 65%
    17:00 +18°C° 0 mm 3 mps 746 mmHg 71%
    18:00 +16°C° 0 mm 3 mps 746 mmHg 76%
    19:00 +15°C° 0 mm 2 mps 746 mmHg 82%
    20:00 +14°C° 0 mm 2 mps 746 mmHg 85%
    21:00 +13°C° 0 mm 2 mps 746 mmHg 88%
    22:00 +10°C° 0 mm 3 mps 746 mmHg 92%
    23:00 +10°C° 0 mm 2 mps 746 mmHg 92%

    25 May, Saturday

    Time Temperature Precipitation Wind Pressure Humidity
    00:00 +9°C° 0 mm 2 mps 746 mmHg 91%
    01:00 +8°C° 0 mm 2 mps 746 mmHg 91%
    02:00 +8°C° 0 mm 2 mps 746 mmHg 91%
    03:00 +8°C° 0 mm 2 mps 747 mmHg 90%
    04:00 +7°C° 0 mm 2 mps 747 mmHg 89%
    05:00 +9°C° 0 mm 2 mps 747 mmHg 83%
    06:00 +12°C° 0 mm 2 mps 747 mmHg 77%
    07:00 +14°C° 0 mm 2 mps 747 mmHg 72%
    08:00 +15°C° 0 mm 2 mps 747 mmHg 66%
    09:00 +16°C° 0 mm 2 mps 747 mmHg 60%
    10:00 +18°C° 0 mm 2 mps 747 mmHg 54%
    11:00 +18°C° 0 mm 2 mps 747 mmHg 52%
    12:00 +19°C° 0 mm 2 mps 746 mmHg 49%
    13:00 +20°C° 0 mm 2 mps 746 mmHg 47%
    14:00 +20°C° 0 mm 2 mps 746 mmHg 49%
    15:00 +20°C° 0 mm 3 mps 746 mmHg 51%
    16:00 +20°C° 0 mm 3 mps 746 mmHg 52%
    17:00 +18°C° 0 mm 2 mps 746 mmHg 58%
    18:00 +17°C° 0 mm 2 mps 746 mmHg 64%
    19:00 +15°C° 0 mm 1 mps 746 mmHg 70%
    20:00 +14°C° 0 mm 1 mps 746 mmHg 73%
    21:00 +13°C° 0 mm 1 mps 747 mmHg 76%
    22:00 +11°C° 0 mm 0 mps 747 mmHg 80%
    23:00 +12°C° 0 mm 1 mps 747 mmHg 80%
    Show more